This is the latest recevied weather packets stored in our database for station/object TA2EE-10. If no packets are shown the sender has not sent any weather packets the latest 10 day(s).
| Time | Temp. | Humidity | Pressure | Rain* | Wind** | Luminosity | Snow |
|---|---|---|---|---|---|---|---|
| 1777493352 | 23.89° C | 24% | 914 hPa | - | - | 0 W/m² | - |
| 1777491230 | 24.44° C | 23% | 914 hPa | - | - | 0 W/m² | - |
| 1777489108 | 25° C | 21% | 914 hPa | - | - | 0 W/m² | - |
| 1777486986 | 25.56° C | 19% | 914 hPa | - | - | 0 W/m² | - |
| 1777486918 | 25.56° C | 20% | 914 hPa | - | - | 0 W/m² | - |
| 1777484796 | 25.56° C | 22% | 913 hPa | - | - | 0 W/m² | - |
| 1777482674 | 28.33° C | 27% | 913 hPa | - | - | 0 W/m² | - |
| 1777480552 | 27.78° C | 22% | 912 hPa | - | - | 0 W/m² | - |
| 1777478430 | 27.22° C | 21% | 912 hPa | - | - | 0 W/m² | - |
| 1777476308 | 28.33° C | 21% | 912 hPa | - | - | 0 W/m² | - |
| 1777474186 | 28.89° C | 20% | 912 hPa | - | - | 0 W/m² | - |
| 1777472064 | 27.78° C | 20% | 912 hPa | - | - | 0 W/m² | - |
| 1777469942 | 28.89° C | 18% | 912 hPa | - | - | 0 W/m² | - |
| 1777467820 | 28.89° C | 18% | 912 hPa | - | - | 0 W/m² | - |
| 1777465698 | 30° C | 18% | 912 hPa | - | - | 0 W/m² | - |
| 1777463576 | 30° C | 18% | 913 hPa | - | - | 0 W/m² | - |
| 1777459869 | 31.11° C | 17% | 913 hPa | - | - | 0 W/m² | - |
| 1777457747 | 31.67° C | 17% | 913 hPa | - | - | 0 W/m² | - |
| 1777455624 | 30.56° C | 15% | 913 hPa | - | - | 0 W/m² | - |
| 1777453503 | 30.56° C | 18% | 913 hPa | - | - | 0 W/m² | - |
| 1777449405 | 29.44° C | 23% | 914 hPa | - | - | 0 W/m² | - |
| 1777447283 | 27.22° C | 25% | 914 hPa | - | - | 0 W/m² | - |
| 1777445161 | 29.44° C | 26% | 914 hPa | - | - | 0 W/m² | - |
| 1777443040 | 28.89° C | 23% | 914 hPa | - | - | 0 W/m² | - |
| 1777442972 | 28.89° C | 23% | 914 hPa | - | - | 0 W/m² | - |
* Rain since midnight (hover to see other rain measurements)
** Current wind speed in m/s (hover to see current wind gust speed)